Weather in Gordes

Turkey     38°56′06″N   28°17′22″E
temp.,
°C
wind,
m/s
gust,
m/s
humid.,
%
clouds,
%
prec.,
mm/h
press.,
hPa
HPBL,
m
26 july, mon
mon2600:00+18n44680 0.0 101471
03:00+16nne34780 0.0 101463
06:00+14n34882 0.0 101565
09:00+20n33630 0.0 1015388
12:00+27n33340 0.0 10151397
15:00+31nnw55220 0.0 10132708
18:00+30n87250 0.0 10132243
21:00+22n610500 0.0 1015280
27 july, tue
tue2700:00+19nne44630 0.0 101763
03:00+18nne33690 0.0 101741
06:00+17nne33670 0.0 101738
09:00+23nne34430 0.0 1017453
12:00+30ne46220 0.0 10162038
15:00+33nne77160 0.0 10142501
18:00+32ne77180 0.0 10132512
21:00+24nne510400 0.0 1015271
28 july, wed
wed2800:00+21n44480 0.0 101648
03:00+19nne33550 0.0 101535
06:00+19nne33520 0.0 101523
09:00+26ne23360 0.0 1015497
12:00+31ne45220 0.0 10131948
15:00+35ne66140 0.0 10112742
18:00+33ne87150 0.0 10102379
21:00+25n45290 0.0 101265
29 july, thu
thu2900:00+22nne45400 0.0 101257
03:00+21nne44450 0.0 101250
06:00+20nne33440 0.0 101229
09:00+27ne23310 0.0 1011445
12:00+32n78190 0.0 10101853
15:00+35nne77150 0.0 10092616
18:00+33nne88160 0.0 10082437
21:00+26n510270 0.0 1010215
30 july, fri
fri3000:00+23n45340 0.0 101159
03:00+21nne44360 0.0 101049
06:00+20nne43360 0.0 101032
09:00+28nne49230 0.0 1010777
12:00+33nne810170 0.0 10092302
15:00+35nne88150 0.0 10082943
18:00+34nne88170 0.0 10072856
21:00+26nne611280 0.0 1009293